Location: Astronomy Club of Akron Observatory
(40.9700°N, 81.5606°W)
Time: 06:17:48
(UTC-04:00)

ISS - Visible Passes

Search period start: 21 August 2018 00:00
Search period end: 31 August 2018 00:00
Orbit: 402 x 409 km, 51.6° (Epoch: 21 August)

Date Brightness Start Highest point End Pass type
(mag) Time Alt. Az. Time Alt. Az. Time Alt. Az.
28 Aug -2.1 06:14:46 10° SSW 06:17:38 28° SE 06:20:29 10° ENE visible
29 Aug -1.2 05:23:46 10° SSE 05:25:44 15° SE 05:27:42 10° E visible
30 Aug -3.7 06:06:38 11° SW 06:09:48 73° SE 06:13:04 10° ENE visible
